This demonstration page uses our WeatherBlox Daily Observations layout. Learn more.

Left ArrowRight Arrow

39.92423, -83.80882

Hourly Observations for October 15, 2021

Temp ( °F °C ) Dew Point ( °F °C ) Humidity (%) Winds ( mph kmh ) Pressure ( in mb ) Visibility ( mi km ) Precip ( " mm )
12:56 am 00:56 Clear 70 21 N/A N/A S 5 7 29.91 1013 10 16 N/A
1:56 am 01:56 Clear 70 21 N/A N/A S 3 6 29.90 1013 10 16 N/A
2:56 am 02:56 Clear 66 19 N/A N/A S 6 9 29.90 1013 10 16 N/A
3:56 am 03:56 Clear 68 20 N/A N/A SSW 3 6 29.89 1012 10 16 N/A
4:56 am 04:56 Mostly Cloudy 68 20 N/A N/A S 3 6 29.89 1012 10 16 0.00 0.00
5:56 am 05:56 Clear 68 20 N/A N/A S 6 9 29.88 1012 10 16 N/A
6:56 am 06:56 Clear 68 20 N/A N/A S 5 7 29.87 1012 10 16 N/A
7:56 am 07:56 Sunny 68 20 N/A N/A S 7 11 29.88 1012 10 16 N/A
8:56 am 08:56 Partly Cloudy 69 20.6 69 20.6 100 100 S 7 11 29.88 1012 10 16 N/A
9:56 am 09:56 Sunny 72 22.2 69 20.6 91 91 S 7 11 29.88 1012 10 16 N/A
10:56 am 10:56 Mostly Cloudy 75 23.9 69 20.6 82 82 SSW 8 13 29.87 1011 10 16 N/A
11:56 am 11:56 Cloudy 74 23.3 68 20 82 82 SSW 9 15 29.87 1011 10 16 N/A
12:54 pm 12:54 Cloudy with Light Rain 72 22 72 22 100 100 SSW 10 17 29.84 1011 10 16 0.00 0.00
12:56 pm 12:56 Cloudy with Light Rain 71 21.7 71 21.7 100 100 SSW 10 17 29.86 1011 10 16 0.00 0.00
1:56 pm 13:56 Cloudy 72 22.2 69 20.6 91 91 SSW 18 30 29.84 1011 10 16 0.00 0.00
2:16 pm 14:16 Cloudy 72 22 70 21 94 94 SSW 12 19 29.81 1010 10 16 N/A
2:36 pm 14:36 Cloudy 72 22 70 21 94 94 SSW 13 20 29.81 1010 10 16 N/A
2:45 pm 14:45 Cloudy 70 21 70 21 100 100 SSW 12 19 29.82 1010 10 16 N/A
2:56 pm 14:56 Cloudy 70 21.1 70 21.1 100 100 SSW 13 20 29.83 1010 10 16 N/A
3:56 pm 15:56 Cloudy 71 21.7 71 21.7 100 100 SSW 14 22 29.81 1010 10 16 N/A
4:33 pm 16:33 Mostly Cloudy 72 22 72 22 100 100 S 13 20 29.77 1008 10 16 N/A
4:56 pm 16:56 Mostly Sunny 72 22.2 72 22.2 100 100 SSW 12 19 29.80 1009 10 16 N/A
5:18 pm 17:18 Mostly Cloudy 72 22 72 22 100 100 SSW 9 15 29.77 1008 10 16 N/A
5:56 pm 17:56 Cloudy 71 21.7 71 21.7 100 100 SSW 12 19 29.79 1009 10 16 N/A
6:54 pm 18:54 Cloudy 70 21 N/A N/A SW 12 19 29.79 1009 10 16 N/A
6:56 pm 18:56 Cloudy 70 21.1 70 21.1 100 100 SSW 12 19 29.80 1009 10 16 N/A
7:56 pm 19:56 Cloudy with Light Rain 66 19 N/A N/A WSW 3 6 29.80 1009 10 16 N/A
8:56 pm 20:56 Mostly Cloudy 64 18 N/A N/A NW 8 13 29.80 1009 10 16 N/A
9:56 pm 21:56 Mostly Cloudy 64 18 N/A N/A WNW 7 11 29.80 1009 10 16 N/A
10:15 pm 22:15 Cloudy 64 18 N/A N/A NW 7 11 29.79 1009 10 16 N/A
10:25 pm 22:25 Cloudy 64 18 N/A N/A NNW 6 9 29.78 1008 10 16 N/A
10:56 pm 22:56 Cloudy 63 17 N/A N/A N 5 7 29.79 1009 10 16 N/A
11:43 pm 23:43 Cloudy with Rain 63 17 N/A N/A N 6 9 29.77 1008 8 13 N/A
11:56 pm 23:56 Cloudy with Rain 63 17 N/A N/A NNW 5 7 29.79 1009 7 11 N/A

Powered by AerisWeather